Regional Weather Roundup
Issued by NWS

Home | Current Version | Previous Version | Graphics & Text | Print | Product List | Glossary On
Versions: 1 2 3 4 5 6 7 8 9 10 11 12 13 14 15 16 17 18 19 20 21 22 23 24 25 26 27 28 29 30 31 32 33 34 35 36 37 38 39 40 41 42 43 44 45 46 47 48 49 50
000
ASUS45 KCYS 270910
RWRWY

WYOMING REGIONAL WEATHER ROUNDUP
NATIONAL WEATHER SERVICE CHEYENNE WY
300 AM MDT THU JUL 27 2017

NOTE:  "FAIR" INDICATES FEW OR NO CLOUDS BELOW 12,000 FEET
WITH NO SIGNIFICANT WEATHER AND/OR OBSTRUCTIONS TO VISIBILITY.

WYZ001-271000-
YELLOWSTONE NATIONAL PARK

CITY           SKY/WX    TMP DP  RH WIND       PRES   REMARKS
LK YELLOWSTONE   N/A     53  51  93 CALM      30.40S
W YELLOWSTONE  NOT AVBL

$$
WYZ002>013-054>058-071-098>099-271000-
NORTHERN WYOMING

CITY           SKY/WX    TMP DP  RH WIND       PRES   REMARKS
JACKSON        FAIR      54  48  82 CALM      30.32S
CODY           LGT RAIN  64  55  72 SW3       30.19F
GREYBULL       FAIR      68  54  60 W5        30.10R
WORLAND        FAIR      64  56  75 W3        30.11R
SHERIDAN       FAIR      58  53  84 SW5       30.08S
BUFFALO        FAIR      63  56  78 S13       30.16R
GILLETTE       FAIR      69  55  60 S15       30.14F
HULETT         FAIR      72  52  49 S10       30.18S
NEWCASTLE      FAIR      70  50  49 SE15G24   30.20S

$$
WYZ014>020-022>026-101>103-271000-
CENTRAL WYOMING

CITY           SKY/WX    TMP DP  RH WIND       PRES   REMARKS
BIG PINEY      FAIR      51  48  89 NE5       30.33F
PINEDALE       FAIR      52  46  82 NW5       30.35S
DUBOIS         FAIR      54  45  71 W5        30.32S
LANDER         FAIR      60  49  66 W8        30.21S
RIVERTON       FAIR      61  56  83 NE6       30.20F
CASPER         FAIR      57  56  96 S3        30.20F
DOUGLAS        FAIR      63  57  81 SE8       30.21S

$$
WYZ021-027>030-104>119-271000-
SOUTHERN WYOMING

CITY           SKY/WX    TMP DP  RH WIND       PRES   REMARKS
EVANSTON       FAIR      56  51  84 S6        30.34F
KEMMERER         N/A     55  50  82 N5        30.36S
FORT BRIDGER   CLOUDY    58  54  88 S10       30.37S
ROCK SPRINGS   MOCLDY    59  54  83 SW14      30.33R
RAWLINS        FAIR      58  55  90 CALM      30.32S
LARAMIE        FAIR      56  54  93 S10       30.33F
CHEYENNE       FAIR      63  57  81 S7        30.28F
TORRINGTON     MOCLDY    67  62  84 E9        30.17F
PINE BLUFFS    PTSUNNY   63  61  94 SE5       30.25F

$$



USA.gov is the U.S. government's official web portal to all federal, state and local government web resources and services.